Theta_e
346 346 346 346 345 344 343 344 343 338 335 333 337 340 342 344 345 345 348 348 347 346 345 341 338 340 335 337 338 338 338 338 339 332 332 331 331 332 332 335 337 338 337
348 347 346 347 346 345 344 344 344 341 337 333 334 337 339 343 346 347 348 350 349 349 348 347 343 338 337 336 336 331 334 337 338 336 333 333 334 335 334 332 331 335 336
348 348 348 347 347 346 345 345 345 343 338 336 334 334 337 341 345 347 350 352 351 351 351 350 347 346 337 335 338 337 332 330 331 333 331 330 330 330 333 334 335 335 333
346 348 348 348 347 345 345 345 345 344 341 337 334 332 332 336 341 344 347 350 350 350 350 348 347 345 344 336 329 331 336 337 337 338 337 333 332 331 332 332 331 331 332
346 347 346 346 346 345 345 345 345 344 342 339 336 333 331 332 334 336 338 342 345 346 348 346 343 342 341 342 343 339 334 333 334 335 337 337 336 335 335 335 337 336 337
346 346 345 346 346 345 344 344 344 343 342 340 337 334 332 330 329 330 333 336 338 343 345 344 343 343 344 344 344 345 345 345 346 345 344 342 341 341 341 341 341 342 343
346 346 346 346 345 345 344 342 341 342 342 339 337 335 332 330 330 330 331 332 333 334 336 339 342 344 344 345 344 345 346 348 348 349 349 348 348 348 349 350 350 351 352
346 346 346 346 346 345 344 343 341 341 341 339 338 337 336 334 333 332 332 333 334 335 335 336 337 339 340 341 342 344 344 345 346 348 350 350 353 355 356 356 355 354 352
346 346 344 345 346 345 345 344 342 341 339 337 337 337 337 337 337 338 340 341 339 338 339 340 340 340 341 343 345 346 345 345 345 348 351 353 355 356 356 356 355 354 353
346 345 346 346 346 346 346 346 345 345 345 344 344 343 344 344 345 346 349 350 351 350 350 349 349 349 350 352 352 353 352 352 354 356 355 355 354 355 356 355 353 352 352
346 346 346 346 347 346 347 347 347 347 347 348 348 350 351 352 353 354 355 356 356 357 356 356 355 356 356 357 357 356 356 356 355 355 354 355 354 359 354 354 353 353 351
346 346 347 347 346 347 347 347 348 348 348 349 350 351 351 352 353 354 355 356 357 358 357 357 357 358 358 358 358 359 358 356 356 355 355 354 355 354 352 353 352 351 350
347 347 347 347 347 347 348 348 349 349 350 350 351 352 353 353 353 354 354 355 357 359 358 359 360 360 360 360 359 358 358 356 357 357 356 355 354 354 353 350 350 349 344
348 349 350 351 350 350 350 352 352 352 353 353 354 354 354 353 352 351 350 352 355 358 360 360 360 360 363 359 360 358 361 361 355 354 354 354 353 353 351 350 346 339 341
353 354 355 355 355 356 357 357 357 356 356 355 355 356 356 354 352 353 355 354 355 358 360 361 360 361 360 359 358 358 359 356 356 355 355 354 353 350 348 345 336 339 337
346 347 349 350 351 349 346 343 344 349 353 354 355 355 354 354 355 355 355 355 358 360 361 360 358 357 357 357 358 357 358 357 357 356 355 356 352 345 338 336 335 334 334
337 337 342 346 347 346 348 349 346 347 345 344 345 347 349 352 358 358 355 355 357 357 357 357 357 357 357 358 358 359 359 358 356 354 352 343 337 335 336 334 333 334 334
330 336 335 345 351 352 353 352 351 350 347 349 356 358 357 358 359 359 357 356 358 362 358 356 355 357 358 360 360 357 356 354 353 345 337 334 335 336 337 335 335 336 334
318 325 334 332 331 335 343 350 352 351 351 354 358 358 358 359 360 360 361 360 361 358 355 357 356 355 356 356 355 354 352 347 338 334 333 333 335 333 337 334 334 334 333
316 317 322 327 332 336 340 344 347 352 355 357 358 359 361 360 359 355 358 356 358 360 357 354 354 353 352 352 350 344 336 334 333 331 331 332 336 336 333 334 334 331 331
313 315 317 327 332 334 334 344 347 350 353 355 356 358 359 361 353 352 352 356 358 356 355 354 351 348 344 338 335 334 333 331 330 331 331 332 335 335 333 333 334 332 331
312 313 314 319 323 336 338 335 332 336 346 352 356 358 358 359 357 351 351 351 351 348 347 344 341 337 335 334 333 332 331 331 331 331 331 333 333 333 332 333 334 333 331
314 313 313 315 318 330 340 334 334 332 329 337 346 356 358 358 356 352 349 347 345 345 341 336 335 334 333 332 330 330 331 332 331 331 331 331 332 332 331 330 333 333 331
321 317 316 317 319 333 338 337 342 343 343 346 349 353 354 353 351 345 341 338 339 336 335 333 332 332 332 333 331 331 332 332 331 331 330 330 331 331 331 331 330 331 331
329 330 328 326 323 327 337 340 343 345 345 346 345 346 345 342 340 338 338 337 335 334 332 331 331 332 333 334 334 332 332 331 332 332 332 331 332 332 331 331 331 331 330
324 327 328 330 332 333 334 335 339 340 340 341 340 336 336 336 336 334 334 334 334 333 333 332 331 331 332 332 332 331 330 331 330 329 329 330 331 332 331 330 330 330 329
Wind_Speed
48 47 44 40 38 41 39 34 31 28 26 27 26 24 22 21 20 20 19 19 18 17 17 19 20 18 19 20 21 22 23 24 27 27 23 20 20 20 20 20 21 23 23
49 48 48 44 40 40 41 35 31 31 29 27 27 25 25 25 24 22 22 22 21 22 21 21 21 21 23 23 23 26 27 27 29 32 31 29 27 25 25 25 25 25 26
49 50 49 49 45 41 39 36 33 32 31 30 29 29 28 28 27 25 23 22 23 24 26 26 24 22 24 27 28 28 28 29 31 35 38 37 35 33 32 33 33 32 32
47 49 49 48 45 41 39 37 36 34 32 33 32 32 31 32 31 30 28 27 27 27 26 27 25 25 23 23 26 30 32 33 34 36 39 40 40 39 39 40 41 40 40
45 46 46 46 45 42 40 38 37 36 33 33 33 35 35 35 34 33 33 32 31 29 29 28 26 25 24 23 25 25 27 30 33 37 40 42 43 42 41 42 44 43 45
43 41 39 41 43 41 38 39 38 38 35 34 34 35 37 38 37 36 36 36 34 33 32 31 31 30 29 28 29 29 31 32 33 36 39 42 42 42 40 40 42 43 47
39 37 38 39 38 39 38 37 38 38 36 35 34 34 36 37 37 37 38 38 39 39 39 37 36 36 35 35 34 35 36 37 38 40 44 46 46 43 43 43 44 45 47
37 37 38 39 39 38 38 39 39 38 37 35 34 34 34 35 34 35 36 38 40 41 41 41 41 40 39 37 37 38 39 38 38 38 41 44 43 40 39 38 39 45 47
39 38 37 35 35 36 38 37 35 35 35 34 33 33 34 33 31 31 31 35 38 40 41 40 40 39 37 36 36 37 38 39 37 36 37 37 32 27 27 35 40 43 47
38 37 36 34 34 35 33 34 33 34 33 32 32 31 31 30 27 25 26 29 33 34 34 36 36 35 34 32 34 35 38 38 34 28 23 22 23 26 27 27 30 37 41
34 32 32 32 31 30 30 30 30 30 29 30 28 26 25 24 23 22 22 26 29 29 31 32 31 28 27 26 26 27 30 21 21 25 28 31 29 31 28 27 29 32 30
26 26 24 24 25 26 26 26 26 26 26 26 27 27 27 26 25 24 24 26 26 30 32 32 30 27 24 22 22 22 20 20 23 25 28 29 30 31 31 31 31 31 32
24 24 24 24 24 24 24 25 26 27 27 28 29 28 27 25 24 22 21 22 24 29 30 30 28 27 24 22 21 20 20 21 23 27 29 28 28 29 31 32 31 31 30
18 21 21 24 24 24 25 24 25 27 28 27 27 27 26 24 23 19 18 19 21 25 26 26 26 27 27 26 25 24 25 24 24 26 27 28 28 30 32 32 34 26 17
16 15 14 15 16 19 21 22 24 25 26 26 26 27 26 26 21 15 16 18 19 19 19 22 25 25 26 28 27 26 24 23 24 26 27 28 28 29 29 30 20 12 12
11 10 11 11 12 14 14 16 19 21 23 25 26 27 26 23 20 17 17 16 15 16 20 24 25 26 25 24 25 24 24 25 26 27 26 26 26 26 23 16 9 11 7
6 6 5 7 10 13 15 16 17 18 21 24 26 26 26 23 21 17 15 15 15 18 22 24 24 23 23 22 21 22 24 24 25 25 24 23 21 16 12 10 11 10 6
2 2 2 3 5 7 10 14 17 19 19 20 20 20 22 23 21 19 18 19 20 22 21 22 24 25 24 22 22 22 23 24 24 22 21 17 14 11 10 9 5 4 4
6 5 6 6 5 7 10 13 15 17 18 17 17 17 17 17 19 20 22 25 24 23 23 22 21 20 20 20 22 25 25 24 22 21 18 15 14 10 8 6 2 4 5
10 9 10 10 8 7 9 12 15 15 15 16 16 16 16 17 16 15 19 22 22 22 20 21 21 22 23 25 26 24 22 22 20 18 16 14 12 10 7 8 5 3 5
16 13 12 14 15 13 12 12 13 14 14 16 16 16 17 19 19 17 18 21 21 20 20 22 22 22 21 21 21 21 19 17 16 15 14 13 12 11 9 9 8 8 8
20 19 16 15 16 19 16 16 18 18 15 15 17 19 20 20 21 21 19 20 19 18 18 20 19 19 19 19 17 15 13 11 12 12 12 11 10 10 11 12 12 12 13
21 21 19 19 20 23 23 21 22 20 21 19 18 21 23 23 23 23 24 22 22 23 21 21 21 21 20 18 17 16 14 12 12 13 12 11 11 11 12 11 16 18 16
17 19 20 23 25 27 26 24 26 27 27 23 21 20 26 27 26 27 25 22 21 19 19 19 20 19 20 18 17 16 15 15 14 14 13 12 12 13 12 12 14 16 16
15 14 16 20 25 29 27 24 27 29 29 25 25 28 30 28 27 26 24 22 20 19 19 18 19 19 18 17 17 16 14 12 13 14 13 13 13 14 14 15 16 16 17
12 12 11 14 17 21 24 23 25 27 27 25 25 27 27 26 27 26 24 23 22 22 21 20 20 17 16 15 13 12 10 10 11 10 9 7 10 12 13 14 15 16 16
Wind_Direction
226 226 228 231 235 239 241 241 242 241 237 229 229 227 229 234 239 244 243 244 248 254 257 257 258 261 260 259 261 264 267 272 280 286 290 292 290 287 288 284 280 274 271
228 230 231 231 234 237 239 240 241 240 237 233 230 229 229 227 229 237 241 243 249 256 261 264 265 262 258 259 264 265 267 269 273 280 285 287 287 288 286 282 280 273 270
228 229 231 233 234 235 238 240 241 240 237 235 233 232 228 226 227 231 239 245 247 253 260 262 264 265 263 261 261 265 266 268 270 275 281 283 284 283 284 284 284 280 276
227 230 231 233 235 237 239 241 243 242 239 236 235 234 233 230 231 234 235 240 249 256 258 256 255 258 261 265 264 265 267 270 273 275 277 280 283 285 284 283 283 283 283
225 228 231 235 236 237 240 242 244 244 241 239 238 237 237 236 235 235 237 242 247 252 253 253 254 256 260 264 269 270 271 272 273 275 276 278 279 281 282 287 287 289 286
222 226 230 233 236 237 239 242 242 243 241 240 239 239 239 240 241 241 242 245 249 252 254 254 256 259 260 263 266 269 273 274 275 276 278 278 282 285 289 290 293 291 289
223 227 230 231 232 234 236 239 239 240 240 239 240 240 241 243 244 246 247 249 252 254 256 258 260 261 264 267 268 269 269 270 273 277 279 279 283 286 291 292 291 291 290
222 223 225 228 230 232 234 237 239 240 240 241 242 244 245 245 247 247 249 251 253 255 257 259 261 264 265 266 268 269 269 269 269 271 274 281 285 292 294 293 292 290 290
221 224 225 225 232 236 237 238 240 241 243 243 246 248 249 250 250 250 249 250 253 255 257 259 260 262 263 266 267 268 270 271 273 275 278 281 285 286 284 287 288 289 291
221 223 230 236 236 238 239 240 242 244 247 248 250 252 254 255 254 252 250 252 253 256 259 260 262 263 264 263 265 269 271 273 283 290 286 282 284 283 283 283 289 291 295
227 234 237 239 239 240 242 243 243 245 247 249 251 252 254 255 255 251 249 252 257 261 262 263 265 267 269 269 265 263 267 282 284 286 290 294 292 294 297 302 305 302 302
236 239 239 239 238 236 237 240 242 244 246 250 254 256 258 259 261 260 256 256 258 260 264 270 273 275 273 269 265 262 264 270 272 275 281 286 294 303 306 306 305 304 300
226 230 231 237 240 240 238 240 242 244 245 247 251 256 260 262 263 263 263 258 254 255 258 264 270 273 273 268 261 261 264 262 267 271 275 288 290 291 292 300 302 307 311
222 227 220 227 235 236 239 239 240 243 247 248 249 251 255 259 264 265 266 264 256 251 254 258 262 263 263 264 263 260 262 264 264 269 275 279 287 292 297 300 304 309 306
151 160 173 194 214 222 229 235 239 243 244 247 251 258 262 265 273 277 264 259 257 253 257 255 255 256 256 260 262 260 262 256 257 263 270 279 285 291 294 298 301 304 305
141 156 172 189 203 212 217 223 230 237 244 246 251 257 260 260 262 258 262 260 252 245 245 252 258 260 259 260 261 256 249 252 259 266 273 277 281 289 292 292 297 303 289
157 179 178 202 220 229 236 241 243 246 247 248 249 251 255 255 253 252 253 246 241 246 250 255 261 264 262 257 258 255 257 260 265 272 274 277 280 278 274 291 304 292 245
281 234 197 207 241 255 255 253 252 253 255 254 252 250 249 248 247 246 238 237 244 248 251 257 259 258 255 255 254 257 261 266 268 268 268 264 258 248 267 296 287 252 229
292 271 254 257 268 268 268 269 267 262 257 253 250 247 245 243 244 244 241 245 248 250 255 251 249 252 254 255 260 262 264 262 259 257 252 247 239 252 257 246 225 233 217
297 278 268 263 258 265 267 277 273 269 261 253 253 249 245 241 241 255 249 245 250 246 242 246 246 250 254 259 260 257 253 254 251 246 244 246 233 231 250 227 225 221 198
281 267 253 247 251 259 257 266 281 269 266 254 248 250 249 251 242 247 255 251 245 246 249 251 252 251 250 248 247 250 249 245 242 238 230 228 224 229 228 218 218 205 196
266 261 253 247 259 261 254 263 279 275 266 256 249 248 244 246 240 244 243 250 251 255 256 248 245 242 240 242 241 235 226 227 231 224 221 222 221 228 221 213 219 222 207
259 251 247 244 249 254 252 261 271 266 267 262 261 248 243 239 237 231 225 229 236 245 243 239 235 232 230 225 219 214 216 226 231 226 227 228 230 221 212 211 219 228 214
265 255 251 247 248 247 248 253 261 262 264 255 252 245 232 229 227 222 221 224 225 226 232 230 228 225 225 222 223 226 230 233 229 222 225 230 229 221 221 221 226 222 222
292 275 259 264 262 254 250 250 254 255 256 245 231 219 211 210 212 214 219 219 222 224 223 226 226 221 223 228 233 237 240 238 230 229 233 230 229 230 245 248 236 229 225
282 276 263 253 249 243 242 241 241 246 236 227 229 208 202 199 201 200 196 204 216 213 216 214 224 230 226 227 224 221 224 219 210 210 210 207 220 233 246 245 228 223 218